Location: Hopkins Observatory
(42.6965°N, 73.1843°W)
Time: 17:21:08
(UTC-04:00)

Amateur Radio Satellites - All Passes

Search period start: 02 September 2014 16:51
Search period end: 03 September 2014 16:51
Location: Hopkins Observatory, 42.6965°N, 73.1843°W

Satellite Date Start Highest point End Downlink Frequencies (MHz)
Time Altitude Azimuth
Hamsat 02 Sep 17:16:25 17:20:12 30° 69° (ENE) 17:24:01 145.90 MHz
PCSat 02 Sep 17:19:08 17:24:22 49° 306° (NW) 17:29:39 145.825 MHz
OPAL 02 Sep 18:03:57 18:09:05 59° 290° (WNW) 18:14:11 ?
STRAND 1 02 Sep 18:17:29 18:18:00 10° 88° (E) 18:18:31 ?
JAS-2 02 Sep 18:25:23 18:31:20 60° 258° (WSW) 18:36:44 435.800 - 435.900 CW/SSB, 435.910 FM
AO-7 02 Sep 18:29:49 18:33:43 14° 273° (W) 18:37:38 29.400 - 29.500 MHz
Sapphire 02 Sep 18:35:48 18:39:20 17° 320° (NW) 18:42:53 437.095 MHz 1200 baud AX-25 AFSK
RS-15 02 Sep 18:38:58 18:47:37 27° 257° (WSW) 18:56:33 29.354 - 29.394 USB, Beacon 29.352 USB
HO-68 02 Sep 18:48:48 18:51:24 12° 48° (NE) 18:53:59 435.675 MHz FM
Hamsat 02 Sep 18:52:34 18:56:09 25° 266° (W) 18:59:47 145.90 MHz
PCSat 02 Sep 19:07:35 19:09:10 11° 328° (NNW) 19:10:44 145.825 MHz
SO-67 02 Sep 19:10:33 19:14:00 81° 77° (ENE) 19:17:29 435.3500 MHz FM
STRAND 1 02 Sep 19:52:45 19:57:54 88° 103° (ESE) 20:03:01 ?
HO-68 02 Sep 20:30:41 20:37:38 59° 68° (ENE) 20:44:37 435.675 MHz FM
UKube-1 02 Sep 20:52:54 20:56:51 36° 69° (ENE) 21:00:50 145.840 MHz, 145.915 MHz
Oscar 11 02 Sep 20:56:07 20:59:38 25° 67° (ENE) 21:03:10 145.825 FM, Beacon 2401.500 USB
MaSat-1 02 Sep 21:13:32 21:17:17 24° 50° (NE) 21:20:38 437.345 MHz
Saudisat 1A 02 Sep 21:18:51 21:22:26 25° 113° (ESE) 21:26:01 436.775 MHz
FUNcube-1 02 Sep 21:30:57 21:34:13 22° 66° (ENE) 21:37:32 145.950 - 145.970 MHz USB
STRAND 1 02 Sep 21:34:05 21:36:21 13° 302° (WNW) 21:38:36 ?
KITSAT 1 02 Sep 21:50:41 21:56:49 25° 104° (ESE) 22:02:57 435.175 FM
HO-68 02 Sep 22:19:48 22:25:43 28° 266° (W) 22:31:40 435.675 MHz FM
UKube-1 02 Sep 22:29:50 22:33:09 21° 266° (W) 22:36:29 145.840 MHz, 145.915 MHz
Oscar 11 02 Sep 22:31:48 22:35:40 31° 264° (W) 22:39:35 145.825 FM, Beacon 2401.500 USB
MaSat-1 02 Sep 22:50:19 22:54:24 36° 252° (WSW) 22:57:56 437.345 MHz
Saudisat 1A 02 Sep 22:57:42 23:01:49 39° 311° (NW) 23:05:59 436.775 MHz
FUNcube-1 02 Sep 23:06:37 23:10:25 33° 264° (W) 23:14:19 145.950 - 145.970 MHz USB
KITSAT 1 02 Sep 23:43:18 23:51:23 76° 303° (WNW) 23:59:32 435.175 FM
Sapphire 02 Sep 23:54:41 23:58:14 17° 40° (NE) 00:01:45 437.095 MHz 1200 baud AX-25 AFSK
PCSat 03 Sep 00:23:14 00:27:51 27° 47° (NE) 00:32:25 145.825 MHz
Oscar 16 03 Sep 01:05:29 01:07:23 12° 88° (E) 01:09:17 437.025 USB, Beacon 2401.1428
Sapphire 03 Sep 01:37:00 01:42:28 86° 60° (ENE) 01:47:54 437.095 MHz 1200 baud AX-25 AFSK
AO-27 03 Sep 01:40:58 01:41:49 10° 88° (E) 01:42:40 436.795 MHz FM
KITSAT 1 03 Sep 01:41:58 01:48:13 24° 327° (NNW) 01:54:29 435.175 FM
JAS-1B 03 Sep 02:00:56 02:05:09 18° 87° (E) 02:09:04 435.800 - 435.900 CW/SSB
PCSat 03 Sep 02:06:17 02:11:32 51° 246° (WSW) 02:16:45 145.825 MHz
Oscar 19 03 Sep 02:06:46 02:11:46 45° 99° (E) 02:16:42 437.125 CW, 437.150 USB
AO-Echo 03 Sep 02:07:47 02:11:19 21° 93° (E) 02:14:51 ?
SO-50 03 Sep 02:11:47 02:15:04 20° 111° (ESE) 02:18:25 436.795 FM
Gurwin Techsat 1B 03 Sep 02:26:47 02:29:30 14° 89° (E) 02:32:13 435.225 FM
Oscar 10/S400 03 Sep 02:37:08 03:45:39 39° 227° (SW) 08:45:08 145.825 - 145.975 CW/USB, Beacon 145.810 USB
Oscar 16 03 Sep 02:42:09 02:47:23 84° 285° (WNW) 02:52:34 437.025 USB, Beacon 2401.1428
ITAMSAT 1 03 Sep 02:46:57 02:51:57 46° 99° (E) 02:56:55 435.822 SSB
Uribyol 2 03 Sep 02:55:55 03:01:04 60° 101° (E) 03:06:12 436.500 FM
TMSAT-1 03 Sep 03:14:35 03:19:10 29° 95° (E) 03:23:43 436.925 FM
AO-27 03 Sep 03:16:50 03:22:03 88° 104° (ESE) 03:27:15 436.795 MHz FM
Sapphire 03 Sep 03:22:42 03:25:06 13° 257° (WSW) 03:27:29 437.095 MHz 1200 baud AX-25 AFSK
OPAL 03 Sep 03:41:27 03:46:02 35° 65° (ENE) 03:50:42 ?
KITSAT 1 03 Sep 03:43:58 03:47:16 13° 357° (N) 03:50:34 435.175 FM
AO-Echo 03 Sep 03:45:51 03:50:16 42° 290° (WNW) 03:54:42 ?
Oscar 19 03 Sep 03:46:42 03:50:49 24° 296° (WNW) 03:54:56 437.125 CW, 437.150 USB
JAS-1B 03 Sep 03:50:05 03:56:40 65° 290° (WNW) 04:02:24 435.800 - 435.900 CW/SSB
SO-50 03 Sep 03:50:57 03:55:17 47° 309° (NW) 03:59:45 436.795 FM
UOSAT-12 03 Sep 03:52:16 03:55:18 18° 110° (ESE) 03:58:23 437.025 FM, 437.400 FM
Gurwin Techsat 1B 03 Sep 04:04:43 04:10:02 75° 286° (WNW) 04:15:19 435.225 FM
Oscar 16 03 Sep 04:23:58 04:25:54 12° 303° (WNW) 04:27:50 437.025 USB, Beacon 2401.1428
ITAMSAT 1 03 Sep 04:27:05 04:31:09 24° 296° (WNW) 04:35:13 435.822 SSB
AO-7 03 Sep 04:32:20 04:39:51 37° 98° (E) 04:47:17 29.400 - 29.500 MHz
Uribyol 2 03 Sep 04:36:29 04:40:05 19° 298° (WNW) 04:43:40 436.500 FM
Uosat F 03 Sep 04:39:21 04:43:51 32° 97° (E) 04:48:19 435.120 FM
TMSAT-1 03 Sep 04:54:18 04:59:08 37° 292° (WNW) 05:03:58 436.925 FM
AO-27 03 Sep 04:58:25 05:00:49 13° 302° (WNW) 05:03:13 436.795 MHz FM
OPAL 03 Sep 05:20:30 05:24:56 30° 262° (W) 05:29:26 ?
UOSAT-12 03 Sep 05:30:26 05:34:59 58° 307° (NW) 05:39:39 437.025 FM, 437.400 FM
STRAND 1 03 Sep 05:32:30 05:35:55 19° 61° (ENE) 05:39:21 ?
JAS-2 03 Sep 05:34:29 05:37:14 14° 91° (E) 05:40:05 435.800 - 435.900 CW/SSB, 435.910 FM
SO-50 03 Sep 05:36:23 05:37:01 10° 331° (NNW) 05:37:40 436.795 FM
KITSAT 1 03 Sep 05:40:54 05:46:35 20° 28° (NNE) 05:52:14 435.175 FM
JAS-1B 03 Sep 05:44:05 05:45:41 11° 313° (NW) 05:47:16 435.800 - 435.900 CW/SSB
Saudisat 1A 03 Sep 05:44:15 05:48:05 28° 45° (NE) 05:51:53 436.775 MHz
Gurwin Techsat 1B 03 Sep 05:47:43 05:49:05 11° 304° (NW) 05:50:26 435.225 FM
Uosat F 03 Sep 06:18:13 06:22:34 31° 294° (WNW) 06:26:54 435.120 FM
AO-7 03 Sep 06:24:53 06:32:50 53° 296° (WNW) 06:40:45 29.400 - 29.500 MHz
Hamsat 03 Sep 06:36:43 06:41:00 54° 100° (E) 06:45:12 145.90 MHz
RS-15 03 Sep 06:49:46 07:00:13 50° 111° (ESE) 07:10:29 29.354 - 29.394 USB, Beacon 29.352 USB
STRAND 1 03 Sep 07:09:37 07:14:38 60° 259° (WSW) 07:19:41 ?
UOSAT-12 03 Sep 07:14:16 07:16:10 12° 328° (NNW) 07:18:05 437.025 FM, 437.400 FM
JAS-2 03 Sep 07:17:32 07:22:50 75° 286° (WNW) 07:28:36 435.800 - 435.900 CW/SSB, 435.910 FM
Saudisat 1A 03 Sep 07:23:40 07:27:44 37° 244° (WSW) 07:31:46 436.775 MHz
KITSAT 1 03 Sep 07:35:48 07:43:49 61° 53° (NE) 07:51:46 435.175 FM
SO-67 03 Sep 08:06:28 08:09:57 89° 102° (ESE) 08:13:24 435.3500 MHz FM
Hamsat 03 Sep 08:14:00 08:16:30 15° 297° (WNW) 08:18:59 145.90 MHz
AO-7 03 Sep 08:20:28 08:23:45 13° 318° (NW) 08:27:01 29.400 - 29.500 MHz
ISS 03 Sep 09:00:25 09:03:23 31° 137° (SE) 09:06:22 145.800 FM
RS-15 03 Sep 09:01:49 09:12:30 53° 315° (NW) 09:23:10 29.354 - 29.394 USB, Beacon 29.352 USB
JAS-2 03 Sep 09:06:33 09:07:09 10° 303° (WNW) 09:07:45 435.800 - 435.900 CW/SSB, 435.910 FM
KITSAT 1 03 Sep 09:31:51 09:38:45 32° 253° (WSW) 09:45:38 435.175 FM
HO-68 03 Sep 09:44:53 09:51:55 56° 102° (ESE) 09:58:55 435.675 MHz FM
UKube-1 03 Sep 10:16:03 10:20:21 60° 101° (ESE) 10:24:38 145.840 MHz, 145.915 MHz
Oscar 11 03 Sep 10:18:12 10:22:23 43° 98° (E) 10:26:31 145.825 FM, Beacon 2401.500 USB
ISS 03 Sep 10:36:55 10:40:03 39° 335° (NNW) 10:43:13 145.800 FM
SO-50 03 Sep 10:41:29 10:45:36 28° 45° (NE) 10:49:46 436.795 FM
FUNcube-1 03 Sep 10:54:16 10:58:39 43° 98° (E) 11:03:02 145.950 - 145.970 MHz USB
RS-15 03 Sep 11:19:42 11:28:09 24° 346° (NNW) 11:36:40 29.354 - 29.394 USB, Beacon 29.352 USB
HO-68 03 Sep 11:33:12 11:39:15 31° 300° (WNW) 11:45:18 435.675 MHz FM
UKube-1 03 Sep 11:53:45 11:56:04 14° 298° (WNW) 11:58:23 145.840 MHz, 145.915 MHz
Oscar 11 03 Sep 11:55:11 11:58:15 19° 295° (WNW) 12:01:19 145.825 FM, Beacon 2401.500 USB
ISS 03 Sep 12:15:05 12:17:27 18° 354° (N) 12:19:50 145.800 FM
UOSAT-12 03 Sep 12:19:48 12:23:37 23° 42° (NE) 12:27:23 437.025 FM, 437.400 FM
SO-50 03 Sep 12:21:47 12:26:20 44° 243° (WSW) 12:30:55 436.795 FM
Oscar 16 03 Sep 12:22:24 12:26:09 21° 62° (ENE) 12:29:55 437.025 USB, Beacon 2401.1428
ITAMSAT 1 03 Sep 12:31:10 12:32:16 11° 56° (NE) 12:33:21 435.822 SSB
FUNcube-1 03 Sep 12:31:23 12:34:44 21° 295° (WNW) 12:38:07 145.950 - 145.970 MHz USB
MaSat-1 03 Sep 12:37:10 12:42:07 77° 114° (ESE) 12:47:17 437.345 MHz
Uribyol 2 03 Sep 12:38:35 12:41:02 14° 58° (ENE) 12:43:29 436.500 FM
JAS-1B 03 Sep 12:44:04 12:51:36 29° 60° (ENE) 12:58:22 435.800 - 435.900 CW/SSB
AO-27 03 Sep 12:58:21 13:01:59 20° 62° (ENE) 13:05:37 436.795 MHz FM
AO-Echo 03 Sep 13:21:18 13:25:38 31° 68° (ENE) 13:29:52 ?
Oscar 19 03 Sep 13:24:17 13:29:25 70° 73° (ENE) 13:34:36 437.125 CW, 437.150 USB
RS-15 03 Sep 13:36:26 13:45:29 28° 22° (NNE) 13:54:41 29.354 - 29.394 USB, Beacon 29.352 USB
AO-7 03 Sep 13:45:27 13:48:56 13° 42° (NE) 13:52:23 29.400 - 29.500 MHz
Gurwin Techsat 1B 03 Sep 13:48:04 13:52:20 25° 64° (ENE) 13:56:36 435.225 FM
ISS 03 Sep 13:52:19 13:55:02 22° 15° (NNE) 13:57:44 145.800 FM
UOSAT-12 03 Sep 13:59:28 14:04:05 55° 241° (WSW) 14:08:37 437.025 FM, 437.400 FM
Oscar 16 03 Sep 14:00:03 14:05:05 54° 260° (W) 14:10:11 437.025 USB, Beacon 2401.1428
ITAMSAT 1 03 Sep 14:05:43 14:10:51 75° 74° (ENE) 14:16:02 435.822 SSB
Uribyol 2 03 Sep 14:14:37 14:19:47 86° 256° (WSW) 14:24:59 436.500 FM
MaSat-1 03 Sep 14:16:12 14:19:43 18° 313° (NW) 14:23:16 437.345 MHz
JAS-1B 03 Sep 14:31:44 14:41:27 78° 256° (WSW) 14:50:01 435.800 - 435.900 CW/SSB
AO-27 03 Sep 14:35:58 14:41:03 57° 259° (W) 14:46:10 436.795 MHz FM
TMSAT-1 03 Sep 14:35:59 14:41:02 48° 70° (ENE) 14:46:07 436.925 FM
AO-Echo 03 Sep 15:00:00 15:04:22 30° 264° (W) 15:08:39 ?
Oscar 19 03 Sep 15:06:26 15:09:16 15° 270° (W) 15:12:07 437.125 CW, 437.150 USB
PCSat 03 Sep 15:07:18 15:10:53 18° 105° (ESE) 15:14:30 145.825 MHz
Gurwin Techsat 1B 03 Sep 15:26:59 15:32:02 44° 261° (W) 15:37:07 435.225 FM
ISS 03 Sep 15:28:47 15:32:08 86° 37° (NE) 15:35:28 145.800 FM
AO-7 03 Sep 15:31:52 15:39:52 54° 64° (ENE) 15:47:52 29.400 - 29.500 MHz
ITAMSAT 1 03 Sep 15:48:27 15:50:55 13° 271° (W) 15:53:23 435.822 SSB
RS-15 03 Sep 15:49:18 16:00:21 68° 51° (NE) 16:11:48 29.354 - 29.394 USB, Beacon 29.352 USB
Uosat F 03 Sep 15:53:16 15:58:04 49° 70° (ENE) 16:02:54 435.120 FM
TMSAT-1 03 Sep 16:17:09 16:21:12 22° 267° (W) 16:25:16 436.925 FM
Sapphire 03 Sep 16:19:19 16:24:41 70° 117° (ESE) 16:30:05 437.095 MHz 1200 baud AX-25 AFSK
JAS-1B 03 Sep 16:27:01 16:32:50 18° 272° (W) 16:38:20 435.800 - 435.900 CW/SSB
